This is the latest recevied weather packets stored in our database for station/object HUGOCO. If no packets are shown the sender has not sent any weather packets the latest 1 day(s).
| Time | Temp. | Humidity | Pressure | Rain* | Wind** | Luminosity | Snow |
|---|---|---|---|---|---|---|---|
| 1836274565 | 16.11° C | 67% | 1016.4 hPa | 0 mm | 5.36 m/s, 359° | - | - |
| 1836274272 | 16.11° C | 67% | 1016.4 hPa | 0 mm | 5.36 m/s, 359° | - | - |
| 1778058658 | -0.56° C | 95% | 1022.2 hPa | 0 mm | 4.02 m/s, 359° | - | - |
| 1778057758 | -0.56° C | 95% | 1022 hPa | 0 mm | 2.68 m/s, 359° | - | - |
| 1778056859 | -0.56° C | 95% | 1021.9 hPa | 0 mm | 3.13 m/s, 359° | - | - |
| 1778055958 | -0.56° C | 95% | 1021.6 hPa | 0 mm | 2.68 m/s, 359° | - | - |
| 1778055058 | -0.56° C | 95% | 1021.6 hPa | 0 mm | 2.68 m/s, 359° | - | - |
| 1778054158 | -0.56° C | 95% | 1021.3 hPa | 0 mm | 2.68 m/s, 359° | - | - |
| 1778053801 | -0.56° C | 95% | 1021.3 hPa | 0 mm | 2.68 m/s, 359° | - | - |
| 1778053259 | -0.56° C | 95% | 1021.3 hPa | 0 mm | 2.68 m/s, 359° | - | - |
| 1778052359 | -0.56° C | 94% | 1021.3 hPa | 0 mm | 1.34 m/s, 359° | - | - |
| 1778051459 | -0.56° C | 94% | 1021.3 hPa | 0 mm | 1.79 m/s, 359° | - | - |
| 1778050559 | -0.56° C | 94% | 1021 hPa | 0 mm | 1.79 m/s, 359° | - | - |
| 1778049840 | -0.56° C | 94% | 1021.1 hPa | 0 mm | 1.34 m/s, 359° | - | - |
| 1778049659 | -0.56° C | 94% | 1021.1 hPa | 0 mm | 1.34 m/s, 359° | - | - |
| 1778048759 | -0.56° C | 94% | 1020.8 hPa | 0 mm | 1.34 m/s, 359° | - | - |
| 1778047859 | -0.56° C | 94% | 1020.6 hPa | 0 mm | 1.79 m/s, 359° | - | - |
| 1778046994 | -0.56° C | 94% | 1020.4 hPa | 0 mm | 1.79 m/s, 359° | - | - |
| 1778046959 | -0.56° C | 94% | 1020.4 hPa | 0 mm | 1.79 m/s, 359° | - | - |
| 1778046304 | -0.56° C | 94% | 1020.3 hPa | 0 mm | 1.79 m/s, 359° | - | - |
| 1778046059 | -0.56° C | 94% | 1020.3 hPa | 0 mm | 1.79 m/s, 359° | - | - |
| 1778045159 | -0.56° C | 94% | 1020 hPa | 0 mm | 2.24 m/s, 359° | - | - |
| 1778044259 | -0.56° C | 94% | 1020 hPa | 0 mm | 2.24 m/s, 359° | - | - |
| 1778043359 | 0° C | 94% | 1019.9 hPa | 0 mm | 2.24 m/s, 359° | - | - |
| 1778042459 | 0° C | 94% | 1019.5 hPa | 0.25 mm | 1.79 m/s, 359° | - | - |
* Rain latest hour (hover to see other rain measurements)
** Current wind speed in m/s (hover to see current wind gust speed)